GW0383 Weather Reports


time (UTC)temp
C
wind
direction
speed
KPH
gust
KPH
rain 1hr
cm
rain 24hr
cm
rain mn
cm
humidity
%
barometer
mb
20260504050715 11 102 0.0 0.0 0.00 0.00 0.00 38 1010.9
20260504050213 11 103 0.0 0.0 0.00 0.00 0.00 39 1011.0
20260504045710 11 106 0.0 0.0 0.00 0.00 0.00 37 1010.8
20260504045209 12 117 0.0 0.0 0.00 0.00 0.00 37 1010.8
20260504044708 12 122 0.0 0.0 0.00 0.00 0.00 37 1011.1
20260504044205 12 127 0.0 0.0 0.00 0.00 0.00 37 1011.2
20260504043702 12 127 0.0 0.0 0.00 0.00 0.00 38 1010.9
20260504043158 12 127 0.0 0.0 0.00 0.00 0.00 38 1011.0
20260504042656 12 127 0.0 0.0 0.00 0.00 0.00 38 1010.8
20260504042152 12 127 0.0 0.0 0.00 0.00 0.00 38 1010.5
20260504041648 12 127 0.0 0.0 0.00 0.00 0.00 38 1010.7
20260504041144 12 127 0.0 0.0 0.00 0.00 0.00 38 1010.8
20260504040641 12 127 0.0 0.0 0.00 0.00 0.00 38 1010.7
20260504040138 12 127 0.0 0.0 0.00 0.00 0.00 38 1010.8
20260504035635 12 127 0.0 0.0 0.00 0.00 0.00 38 1010.8
20260504035132 12 127 0.0 0.0 0.00 0.00 0.00 38 1010.7
20260504034630 12 127 0.0 0.0 0.00 0.00 0.00 37 1011.0
20260504034126 11 127 0.0 0.0 0.00 0.00 0.00 37 1010.7
20260504033624 11 127 0.0 0.0 0.00 0.00 0.00 37 1010.7
20260504033121 11 127 0.0 0.0 0.00 0.00 0.00 37 1010.9
20260504032618 11 128 0.0 0.0 0.00 0.00 0.00 36 1010.9
20260504032115 11 115 0.0 0.0 0.00 0.00 0.00 37 1010.8
20260504031612 11 114 0.0 0.0 0.00 0.00 0.00 38 1010.8
20260504031108 11 114 0.0 0.0 0.00 0.00 0.00 37 1010.8
20260504030605 11 136 0.0 0.0 0.00 0.00 0.00 37 1010.7
20260504025559 11 137 0.0 0.0 0.00 0.00 0.00 36 1010.9
20260504025055 11 135 0.0 0.0 0.00 0.00 0.00 36 1010.8
20260504024553 11 144 0.0 0.0 0.00 0.00 0.00 36 1010.8
20260504024049 11 142 0.0 0.0 0.00 0.00 0.00 36 1010.8
20260504023546 11 141 0.0 0.0 0.00 0.00 0.00 36 1010.8
20260504023042 11 142 0.0 0.0 0.00 0.00 0.00 35 1011.0
20260504022538 11 177 1.6 3.2 0.00 0.00 0.00 35 1011.0
20260504022034 11 141 0.0 0.0 0.00 0.00 0.00 35 1010.9
20260504021532 11 149 0.0 0.0 0.00 0.00 0.00 34 1010.7
20260504021029 11 145 0.0 0.0 0.00 0.00 0.00 34 1010.9
20260504020526 11 128 0.0 0.0 0.00 0.00 0.00 34 1010.8
20260504020022 12 121 0.0 0.0 0.00 0.00 0.00 33 1010.7
20260504015518 12 120 0.0 0.0 0.00 0.00 0.00 34 1010.7
20260504015015 12 132 0.0 1.6 0.00 0.00 0.00 33 1010.4
20260504014511 12 114 0.0 0.0 0.00 0.00 0.00 33 1010.8
20260504014008 12 134 0.0 0.0 0.00 0.00 0.00 32 1010.5
20260504013506 12 149 0.0 0.0 0.00 0.00 0.00 32 1010.3
20260504013002 12 150 0.0 0.0 0.00 0.00 0.00 32 1010.0
20260504012500 12 150 0.0 0.0 0.00 0.00 0.00 33 1010.2
20260504011958 12 150 0.0 0.0 0.00 0.00 0.00 33 1010.2
20260504011454 12 150 0.0 0.0 0.00 0.00 0.00 34 1010.0
20260504010950 12 150 0.0 0.0 0.00 0.00 0.00 32 1010.1
20260504010446 12 150 0.0 0.0 0.00 0.00 0.00 31 1010.0
20260504005942 12 150 0.0 0.0 0.00 0.00 0.00 30 1010.1
20260504005439 12 150 0.0 0.0 0.00 0.00 0.00 30 1009.9
20260504004937 13 150 0.0 0.0 0.00 0.00 0.00 29 1010.0
20260504004434 13 150 0.0 0.0 0.00 0.00 0.00 29 1009.7
20260504003931 13 150 0.0 0.0 0.00 0.00 0.00 28 1009.6
20260504003427 13 150 0.0 0.0 0.00 0.00 0.00 29 1010.0
20260504002924 13 150 0.0 0.0 0.00 0.00 0.00 28 1009.6
20260504002421 13 150 0.0 0.0 0.00 0.00 0.00 29 1009.8
20260504001918 13 150 0.0 0.0 0.00 0.00 0.00 29 1009.5
20260504001416 13 150 0.0 0.0 0.00 0.00 0.00 29 1009.5
20260504000912 13 150 0.0 1.6 0.00 0.00 0.00 29 1009.6
20260504000409 13 145 0.0 0.0 0.00 0.00 0.00 29 1009.7
20260503235907 13 155 1.6 3.2 0.00 0.00 0.00 30 1009.6
20260503235405 13 172 3.2 3.2 0.00 0.00 0.00 29 1009.7
20260503234902 15 154 1.6 3.2 0.00 0.00 0.00 30 1009.8
20260503234359 15 170 3.2 3.2 0.00 0.00 0.00 29 1009.7
20260503233857 15 154 1.6 1.6 0.00 0.00 0.00 33 1009.9
20260503233353 15 154 0.0 3.2 0.00 0.00 0.00 30 1009.8
20260503232850 16 177 3.2 3.2 0.00 0.00 0.00 29 1009.9
20260503232347 16 178 4.8 4.8 0.00 0.00 0.00 27 1009.4
20260503231845 16 149 0.0 1.6 0.00 0.00 0.00 27 1009.7
20260503231342 16 203 3.2 3.2 0.00 0.00 0.00 26 1009.5
20260503230838 16 161 0.0 1.6 0.00 0.00 0.00 29 1009.5
20260503230335 16 173 1.6 3.2 0.00 0.00 0.00 26 1009.3
20260503225833 16 196 1.6 3.2 0.00 0.00 0.00 27 1009.5
20260503225328 16 185 1.6 4.8 0.00 0.00 0.00 26 1009.2
20260503224825 16 181 1.6 4.8 0.00 0.00 0.00 28 1009.5
20260503224322 17 232 6.4 8.0 0.00 0.00 0.00 26 1009.4
20260503223820 16 180 3.2 4.8 0.00 0.00 0.00 28 1009.3
20260503223317 16 213 6.4 9.7 0.00 0.00 0.00 27 1009.2
20260503222813 16 204 6.4 9.7 0.00 0.00 0.00 26 1009.6
20260503222311 17 154 3.2 4.8 0.00 0.00 0.00 26 1009.9
20260503221809 17 221 6.4 8.0 0.00 0.00 0.00 25 1009.3
20260503221308 17 183 3.2 4.8 0.00 0.00 0.00 27 1009.6
20260503220803 17 190 4.8 8.0 0.00 0.00 0.00 26 1009.6
20260503220300 17 216 6.4 8.0 0.00 0.00 0.00 26 1009.6
20260503215757 17 157 3.2 4.8 0.00 0.00 0.00 28 1009.7
20260503215254 17 162 4.8 4.8 0.00 0.00 0.00 26 1009.5
20260503214752 17 166 3.2 4.8 0.00 0.00 0.00 27 1009.6
20260503214249 17 231 6.4 8.0 0.00 0.00 0.00 26 1009.6
20260503213746 17 200 4.8 8.0 0.00 0.00 0.00 25 1009.7
20260503213244 17 217 9.7 11.3 0.00 0.00 0.00 25 1009.8
20260503212740 17 224 4.8 9.7 0.00 0.00 0.00 26 1009.5
20260503212238 17 185 4.8 11.3 0.00 0.00 0.00 25 1009.7
20260503211735 17 225 9.7 16.1 0.00 0.00 0.00 26 1009.9
20260503211231 17 191 8.0 11.3 0.00 0.00 0.00 27 1009.9
20260503210727 17 188 4.8 8.0 0.00 0.00 0.00 27 1009.9
20260503210225 17 200 8.0 11.3 0.00 0.00 0.00 25 1010.0
20260503205720 18 215 4.8 9.7 0.00 0.00 0.00 27 1010.0
20260503205216 17 175 3.2 4.8 0.00 0.00 0.00 28 1010.1
20260503204713 17 212 4.8 8.0 0.00 0.00 0.00 28 1010.1
20260503204211 17 212 9.7 11.3 0.00 0.00 0.00 25 1010.1
20260503203707 17 220 6.4 9.7 0.00 0.00 0.00 27 1010.0
20260503203205 17 153 3.2 8.0 0.00 0.00 0.00 27 1010.0
20260503202702 18 213 9.7 12.9 0.00 0.00 0.00 27 1010.2
20260503202200 17 210 3.2 11.3 0.00 0.00 0.00 30 1010.3
20260503201658 16 197 3.2 9.7 0.00 0.00 0.00 26 1010.3
20260503201155 16 190 4.8 9.7 0.00 0.00 0.00 29 1010.1
20260503200651 17 205 4.8 8.0 0.00 0.00 0.00 28 1010.5
20260503200147 17 207 4.8 9.7 0.00 0.00 0.00 27 1010.7
20260503195644 17 190 3.2 4.8 0.00 0.00 0.00 29 1010.4
20260503195142 16 211 4.8 11.3 0.00 0.00 0.00 29 1010.7
20260503194638 16 208 4.8 11.3 0.00 0.00 0.00 28 1010.4
20260503194133 16 218 8.0 9.7 0.00 0.00 0.00 27 1010.8
20260503193631 16 179 9.7 11.3 0.00 0.00 0.00 29 1011.0
20260503193126 15 174 4.8 12.9 0.00 0.00 0.00 30 1011.1
20260503192622 16 223 8.0 12.9 0.00 0.00 0.00 28 1011.2
20260503192118 16 232 6.4 8.0 0.00 0.00 0.00 30 1011.4
20260503191615 16 211 4.8 11.3 0.00 0.00 0.00 30 1011.1
20260503191112 16 218 8.0 14.5 0.00 0.00 0.00 29 1011.4
20260503190609 16 217 6.4 8.0 0.00 0.00 0.00 28 1011.5
20260503190106 16 205 6.4 8.0 0.00 0.00 0.00 30 1011.5
20260503185603 16 217 6.4 12.9 0.00 0.00 0.00 29 1011.5
20260503185102 15 172 1.6 9.7 0.00 0.00 0.00 29 1011.8
20260503184558 15 200 4.8 9.7 0.00 0.00 0.00 31 1011.3
20260503184055 15 214 6.4 11.3 0.00 0.00 0.00 29 1011.9
20260503183551 15 214 6.4 12.9 0.00 0.00 0.00 30 1011.8
20260503183049 14 229 9.7 11.3 0.00 0.00 0.00 32 1011.7
20260503182547 14 210 8.0 14.5 0.00 0.00 0.00 29 1011.9
20260503182045 15 249 9.7 12.9 0.00 0.00 0.00 30 1011.9
20260503181541 15 201 8.0 9.7 0.00 0.00 0.00 35 1011.8
20260503181038 15 191 4.8 9.7 0.00 0.00 0.00 32 1011.5
20260503180535 13 223 11.3 12.9 0.00 0.00 0.00 33 1011.9
20260503180032 14 205 6.4 11.3 0.00 0.00 0.00 30 1011.8
20260503175530 15 160 0.0 9.7 0.00 0.00 0.00 35 1011.9
20260503175027 15 219 4.8 14.5 0.00 0.00 0.00 31 1011.7
20260503174524 14 203 4.8 12.9 0.00 0.00 0.00 32 1011.8
20260503174020 13 210 6.4 12.9 0.00 0.00 0.00 33 1012.2
20260503173515 12 209 6.4 17.7 0.00 0.00 0.00 33 1012.1
20260503173012 12 202 4.8 17.7 0.00 0.00 0.00 33 1012.1
20260503172510 13 205 6.4 11.3 0.00 0.00 0.00 33 1012.0
20260503172006 13 213 9.7 12.9 0.00 0.00 0.00 33 1012.1
20260503171503 13 212 4.8 8.0 0.00 0.00 0.00 34 1012.1
20260503171000 12 203 4.8 9.7 0.00 0.00 0.00 35 1012.5
20260503170457 13 234 8.0 9.7 0.00 0.00 0.00 33 1012.4
20260503150849 9 170 8.0 12.9 0.00 0.00 0.00 41 1013.2
20260503150345 10 172 4.8 9.7 0.00 0.00 0.00 43 1013.3
20260503140309 7 207 6.4 8.0 0.00 0.00 0.00 48 1013.5
20260503131239 6 221 4.8 9.7 0.00 0.00 0.00 54 1013.2
20260503130736 6 200 8.0 16.1 0.00 0.00 0.00 51 1013.2
20260503130234 5 214 8.0 12.9 0.00 0.00 0.00 52 1013.5
20260503120159 4 200 6.4 8.0 0.00 0.00 0.00 62 1013.1
20260503110627 3 161 1.6 3.2 0.00 0.00 0.00 63 1012.4
20260503110124 3 151 1.6 3.2 0.00 0.00 0.00 64 1012.4
20260503081440 5 205 4.8 4.8 0.00 0.00 0.00 63 1010.2
20260503080937 5 204 4.8 8.0 0.00 0.00 0.00 62 1010.3
20260503080433 5 200 4.8 8.0 0.00 0.00 0.00 62 1010.2
20260503072910 5 243 8.0 11.3 0.00 0.00 0.00 59 1009.8
20260503072407 5 200 8.0 11.3 0.00 0.00 0.00 59 1009.7
20260503071904 5 200 9.7 11.3 0.00 0.00 0.00 60 1009.9
20260503071401 5 191 3.2 9.7 0.00 0.00 0.00 59 1009.6
20260503070856 5 220 8.0 14.5 0.00 0.00 0.00 58 1009.6
20260503070355 5 188 3.2 16.1 0.00 0.00 0.00 57 1009.6
20260503060320 5 147 1.6 4.8 0.00 0.00 0.00 61 1009.2
20260503054808 5 174 1.6 3.2 0.00 0.00 0.00 61 1009.3
20260503054304 5 175 3.2 9.7 0.00 0.00 0.00 61 1009.4
20260503053802 6 140 0.0 12.9 0.00 0.00 0.00 61 1009.3
20260503053300 6 137 0.0 8.0 0.00 0.00 0.00 60 1009.3